FW7196 Weather Reports


Display with metric or nautical units.
time (UTC)temp
F
wind
direction
speed
MPH
gust
MPH
rain 1hr
in
rain 24hr
in
rain mn
in
humidity
%
barometer
mb
20260505190042 80 162 2.0 12.0 0.00 0.00 0.00 32 1003.2
20260505184535 78 198 3.0 12.0 0.00 0.00 0.00 33 1003.2
20260505183036 78 46 2.0 11.0 0.00 0.00 0.00 33 1003.4
20260505181536 79 101 1.0 15.0 0.00 0.00 0.00 33 1003.7
20260505180040 78 164 4.0 10.0 0.00 0.00 0.00 34 1003.9
20260505174538 78 94 3.0 15.0 0.00 0.00 0.00 36 1004.4
20260505173035 77 159 3.0 13.0 0.00 0.00 0.00 34 1004.4
20260505171540 79 60 2.0 9.0 0.00 0.00 0.00 38 1004.5
20260505170038 77 72 3.0 11.0 0.00 0.00 0.00 40 1004.7
20260505164540 77 140 3.0 10.0 0.00 0.00 0.00 41 1004.9
20260505163041 76 99 4.0 13.0 0.00 0.00 0.00 42 1005.3
20260505161536 75 159 2.0 10.0 0.00 0.00 0.00 44 1005.6
20260505153043 72 171 2.0 9.0 0.00 0.00 0.00 49 1006.7
20260505151538 70 37 2.0 10.0 0.00 0.00 0.00 52 1007.1
20260505124540 56 147 3.0 9.0 0.00 0.00 0.00 69 1007.0
20260505123048 55 105 1.0 8.0 0.00 0.00 0.00 68 1007.0
20260505121537 55 153 2.0 10.0 0.00 0.00 0.00 68 1007.2
20260505120043 55 148 1.0 11.0 0.00 0.00 0.00 69 1007.3
20260505114534 54 107 3.0 9.0 0.00 0.00 0.00 70 1007.5
20260505113034 53 133 3.0 9.0 0.00 0.00 0.00 72 1007.5
20260505111536 52 115 1.0 6.0 0.00 0.00 0.00 73 1007.4
20260505101536 50 99 1.0 5.0 0.00 0.00 0.00 75 1006.9
20260505100038 49 74 1.0 3.0 0.00 0.00 0.00 75 1006.9
20260505095208 50 109 0.0 0.0 0.00 0.00 0.00 75 1006.9
20260505094539 50 0 0.0 2.0 0.00 0.00 0.00 75 1006.9
20260505093036 50 0 1.0 2.0 0.00 0.00 0.00 74 1006.9
20260505091538 50 0 0.0 4.0 0.00 0.00 0.00 73 1007.1
20260505090034 50 0 0.0 7.0 0.00 0.00 0.00 73 1007.3
20260505084555 51 0 0.0 2.0 0.00 0.00 0.00 72 1007.2
20260505083057 51 119 1.0 3.0 0.00 0.00 0.00 72 1007.1
20260505081553 51 0 0.0 2.0 0.00 0.00 0.00 71 1007.3
20260505080044 52 0 0.0 3.0 0.00 0.00 0.00 70 1007.2
20260505074535 52 0 0.0 2.0 0.00 0.00 0.00 68 1007.2
20260505073048 53 56 0.0 2.0 0.00 0.00 0.00 67 1007.2
20260505071545 52 159 1.0 3.0 0.00 0.00 0.00 67 1007.5
20260505070043 52 114 2.0 12.0 0.00 0.00 0.00 68 1007.3
20260505064536 52 120 2.0 5.0 0.00 0.00 0.00 68 1007.4
20260505063040 53 144 1.0 4.0 0.00 0.00 0.00 67 1007.5
20260505061535 53 122 2.0 6.0 0.00 0.00 0.00 67 1007.6
20260505060053 53 98 1.0 6.0 0.00 0.00 0.00 67 1007.7
20260505054537 53 0 1.0 4.0 0.00 0.00 0.00 67 1007.5
20260505053038 53 124 1.0 5.0 0.00 0.00 0.00 66 1007.6
20260505051535 53 157 1.0 5.0 0.00 0.00 0.00 66 1007.8
20260505041549 55 136 1.0 8.0 0.00 0.00 0.00 62 1007.7
20260505040041 55 0 1.0 5.0 0.00 0.00 0.00 61 1007.7
20260505040027 56 139 1.0 1.0 0.00 0.00 0.00 61 1007.7
20260505034537 55 0 1.0 4.0 0.00 0.00 0.00 60 1007.4
20260505033037 55 0 0.0 3.0 0.00 0.00 0.00 59 1007.4
20260505031536 54 116 1.0 3.0 0.00 0.00 0.00 61 1007.4
20260505030044 53 0 0.0 2.0 0.00 0.00 0.00 65 1007.3
20260505024534 52 0 0.0 0.0 0.00 0.00 0.00 66 1007.2
20260505023109 52 0 0.0 0.0 0.00 0.00 0.00 68 1007.2
20260505021537 51 0 0.0 0.0 0.00 0.00 0.00 69 1007.2
20260505020040 52 0 0.0 0.0 0.00 0.00 0.00 69 1007.2
20260505014559 52 0 0.0 0.0 0.00 0.00 0.00 69 1007.1
20260505013046 53 0 0.0 0.0 0.00 0.00 0.00 67 1007.1
20260505011540 54 0 0.0 0.0 0.00 0.00 0.00 64 1007.1
20260505010051 56 0 0.0 0.0 0.00 0.00 0.00 61 1007.0
20260505004546 57 0 0.0 0.0 0.00 0.00 0.00 58 1006.8
20260505003052 58 0 0.0 0.0 0.00 0.00 0.00 55 1006.6
20260505001537 59 0 0.0 0.0 0.00 0.00 0.00 52 1006.3
20260505000037 60 0 0.0 1.0 0.00 0.00 0.00 51 1006.2
20260504234533 62 0 0.0 1.0 0.00 0.00 0.00 47 1005.9
20260504233037 63 0 0.0 3.0 0.00 0.00 0.00 45 1005.8
20260504231537 65 0 0.0 3.0 0.00 0.00 0.00 40 1005.6
20260504230035 66 47 0.0 9.0 0.00 0.00 0.00 35 1005.3
20260504224534 66 0 2.0 7.0 0.00 0.00 0.00 35 1005.2
20260504223046 66 22 2.0 7.0 0.00 0.00 0.00 35 1005.3
20260504221537 66 12 0.0 6.0 0.00 0.00 0.00 39 1005.1
20260504220036 67 329 2.0 12.0 0.00 0.00 0.00 35 1005.0
20260504214537 67 205 2.0 11.0 0.00 0.00 0.00 35 1004.9
20260504213036 67 292 2.0 11.0 0.00 0.00 0.00 36 1004.9
20260504211551 67 128 2.0 9.0 0.00 0.00 0.00 36 1005.0
20260504210043 67 348 2.0 13.0 0.00 0.00 0.00 34 1005.3
20260504204535 67 184 2.0 11.0 0.00 0.00 0.00 36 1005.3
20260504203037 67 173 3.0 15.0 0.00 0.00 0.00 37 1005.2
20260504201534 67 240 2.0 12.0 0.00 0.00 0.00 39 1005.3
20260504200036 66 240 3.0 9.0 0.00 0.00 0.00 37 1005.5
20260504194542 67 301 3.0 13.0 0.00 0.00 0.00 38 1005.6
20260504193038 67 116 3.0 11.0 0.00 0.00 0.00 37 1005.5
20260504191537 67 357 2.0 9.0 0.00 0.00 0.00 38 1005.7